Volver al catálogo

RADUGA 1M-2

ActivoMilitarGEO
NORAD 36358·PAYLOAD·🇷🇺 Russia

Lanzado Jan 28, 2010 desde Baikonur Cosmodrome

Loading…

TLE

ActualizadoSource: Space-Track

Época: Sep 14, 2026, 14:59 UTC

1 36358U 10002A   26257.62432791  .00000047  00000-0  00000-0 0  9995
2 36358   3.8479  77.6918 0004576 241.6865 147.6024  0.98965000 50916

Sigue RADUGA 1M-2 en tiempo real con AllMySat

Download on the App Store